NINGXIA-1 3

Satellite information

Favourite Embed

Satellite Type and Status

PAYLOADIN ORBIT

Key statistics

Satellite NINGXIA-1 3 at a glance.

Uptime

2223

Days in orbit

Revolutions

≈ 14.0

Per day

Orbit

LEO

Low Earth Orbit

Inclination

45.0

Latest

Satellite identification and parameters

Extended collection of information and parameters for NINGXIA-1 3.

Object identification

Identified? True

Debris? False

Object name: NINGXIA-1 3

International designator: 2019-076C

Object number (NORAD): 44781

Object ID (CCSDS): 44781

Country: PEOPLES REPUBLIC OF CHINA (PRC)

Current information (Y/N): Y

RCS size: MEDIUM

Orbital parameters

Period: 102.709 minutes

Inclination: 45.0005 deg

SMA: 7264.965 km

Apoapsis: 894.784 km

Periapsis: 878.876 km

RAAN: 293.5848 deg

Eccentricy: 0.00109488

Argument of periapsis: 336.332 deg

Mean anomaly: 23.701 deg

Mean motion: 14.02014387 rev/day

Mean motion (dot): 0.0000001 rev/day2

B* drag term: 0.000090990788 1/REarth

Two-line elements (TLE)

Creation date: Dec. 12, 2025, 10:14 a.m.

Reference frame: TEME

Reference center: EARTH

Epoch: Dec. 12, 2025, 7:28 a.m. UTC

TLE line 0: 0 NINGXIA-1 3

TLE line 1: 1 44781U 19076C 25346.31132436 .00000010 00000-0 90991-4 0 9993

TLE line 2: 2 44781 45.0005 293.5848 0010949 336.3320 23.7010 14.02014387311639

Live tracking on map

Real-time ground track for satellite NINGXIA-1 3.

In-orbit conjunctions

There are no conjunctions computed for NINGXIA-1 3, at the moment. Check back to stay up to date, as we update our databases every day.

Go to all conjunctions

Associated space launch

Ningxia 1 is a constellation of remote sensing satellites developed by Dongfanghong Satellite Co., Ltd.

NINGXIA-1 3 was lifted into orbit during the mission ‘Long March 6 | Ningxia 1 (x5)’, on board a Long March 6 space rocket.

The launch took place on Nov. 13, 2019, 6:35 a.m. from Launch Complex 16.

For more information about the launch, click the button.

Launch to space Long March 6 | Ningxia 1 (x5)
Long March 6 | Ningxia 1 (x5)

Agency: N/A

Status: Launch Successful

Launch date: Nov. 13, 2019, 6:35 a.m. UTC

Rocket: Long March 6

Launch pad: Launch Complex 16

Location: Taiyuan Satellite Launch Center, People's Republic of China

...

Latest news about this satellite

News about space launch
Long March 6 lofts five Ningxia-1 satellites

News about space launch
Two Chinese satellite launchers lift off three hours apart


Newsletter sign-up

Weekly statistics, charts and insights to help you stay on top of the space industry.